Meath Environmental Platform

Observations for Trim Market St

Time AQI Temp °C Hum % Pres Pa CO μg/m³ H₂S μg/m³ NO μg/m³ NO₂ μg/m³ O₃ μg/m³ SO₂ μg/m³ PM1 μg/m³ PM2.5 μg/m³ PM10 μg/m³
Tuesday 18 August 2026
01:43 2 19.5 79 2,147,483,647 0 0 1.95 1.09 51.67 0 0.71 2.17 4.66
01:42 2 19.5 79 2,147,483,647 0.02 0 1.94 1.1 61.27 0 0.71 2.64 5.23
01:41 2 19.5 79 2,147,483,647 0 0 1.94 0.91 49.34 0 0.71 2.64 5.23
01:40 2 19.5 79 2,147,483,647 0 0 1.95 1.17 57.1 0 0.71 2.17 4.66
01:39 2 19.5 79 2,147,483,647 0 0 1.94 1.05 59.53 0 0.71 3.11 5.81
01:36 2 19.5 79 2,147,483,647 0 0 1.89 1.11 53.15 0 1.43 3.59 6.96
01:33 2 19.6 79 2,147,483,647 0.01 0 1.96 0.84 55.44 0 0.71 2.64 5.23
01:30 2 19.6 79 2,147,483,647 0 0 1.95 1 50.62 0 2.14 3.12 6.38
01:28 2 19.6 79 2,147,483,647 0 0 1.95 0.92 55.29 0 0.71 3.12 5.81
01:21 2 19.7 79 2,147,483,647 0.01 0 1.96 0.83 49.83 0 1.43 3.59 6.38
01:20 2 19.7 79 2,147,483,647 0.01 0 1.96 0.78 54.29 0 2.14 4.07 6.96
01:19 2 19.7 79 2,147,483,647 0.01 0 1.96 0.83 50.08 0 1.43 3.12 5.81
01:17 2 19.7 79 2,147,483,647 0.01 0 1.97 0.76 49.61 0 1.43 3.59 6.38
01:16 2 19.7 79 2,147,483,647 0.01 0 1.96 0.76 53.6 0 2.14 3.59 6.38
01:15 2 19.7 79 2,147,483,647 0.02 0 1.96 0.73 52.31 0 2.85 3.59 6.38
01:14 2 19.7 79 2,147,483,647 0.01 0 1.96 0.76 50.92 0 2.14 4.06 6.96
01:13 2 19.8 79 2,147,483,647 0.01 0 1.97 0.58 48.28 0 2.14 4.53 8.11
01:12 2 19.8 79 2,147,483,647 0.01 0 1.98 0.38 53.74 0 0.71 3.11 5.81
01:11 2 19.8 79 2,147,483,647 0.01 0 1.98 0.46 53.56 0 2.14 4.53 8.11
01:07 2 19.8 79 2,147,483,647 0.02 0 1.99 0.32 50.93 0 1.43 3.1 6.96